PHNLPKWA

Guest
Details From PHNL - Honolulu Intl
To PKWA - Bucholz Aaf
Flight Number -
Tags Generated
Created
Modified
Stats Distance 2,125 nm / 3,936 km
Max Altitude 0 ft / 0 m
Waypoints 3
Social Downloads 0
Likes 0
Share VATSIM

Download

Looking for another format? Having issues loading an existing format? Contact us
Advertisement - Login to hide

Notes

Generated

Route

PHNL R1279 PKWA

ID Type Via Altitude Latitude Longitude Leg Dist Tot Dist Heading (true) Name
O PHNL APT - 0 ft / 0 m 21.31833˚ -157.92332˚ - 0 nm - Honolulu Intl
R1279 FIX - 0 ft / 0 m 8.71740˚ 167.72284˚ 2125 nm 2125 nm 254° / 245° -
O PKWA APT - 0 ft / 0 m 8.71740˚ 167.72284˚ 0 nm 2125 nm 0° / 180° -

Altitude Profile

Advertisement - Login to hide

Weather


0- 5 10 15 20 25 30 35+ Temperature / ° C

Clouds and Precipitation
Forecast for 2018-05-21 12:00 UTC. Updated 2 hours ago

Ground ~20,000 ft ~40,000 ft Winds

PHNL

Details ICAO PHNL (HNL)
Name Honolulu Intl
Region USA (Hawaii)
Timezone Pacific/Honolulu (UTC-10.0)
Stats Elevation 13 ft / 4 m (AMSL)
Location 21.319376° -157.921281°
Runways 4
Magnetic Variation 9.468° E

METAR

PHNL 211253Z 07011G17KT 10SM FEW024 FEW038 SCT049 24/18 A3005

Decode

TAF

PHNL 211123Z 2112/2218 05009KT P6SM VCSH SCT030 BKN040 FM212000 06015G23KT P6SM FEW025 FEW050 FM220500 06012KT P6SM FEW025 SCT050

Decode

Departure Runways

ID Width Length Bearing (true) Bearing (mag) Surface Threshold Offset Overrun Length
04L 150 ft / 46 m 6,958 ft / 2,121 m 52.84° 43.37° Asphalt 0 ft / 0 m 215 ft / 66 m
04R 150 ft / 46 m 9,008 ft / 2,746 m 52.86° 43.39° Asphalt 0 ft / 0 m 200 ft / 61 m
08L 150 ft / 46 m 12,285 ft / 3,744 m 90.00° 80.53° Asphalt 0 ft / 0 m 1,000 ft / 305 m
08R 200 ft / 61 m 11,985 ft / 3,653 m 90.00° 80.53° Asphalt 0 ft / 0 m 700 ft / 213 m
22L 150 ft / 46 m 9,008 ft / 2,746 m 232.86° 223.39° Asphalt 0 ft / 0 m 215 ft / 66 m
22R 150 ft / 46 m 6,958 ft / 2,121 m 232.85° 223.38° Asphalt 0 ft / 0 m 0 ft / 0 m
26L 200 ft / 61 m 11,985 ft / 3,653 m 270.01° 260.54° Asphalt 0 ft / 0 m 700 ft / 213 m
26R 150 ft / 46 m 12,285 ft / 3,744 m 270.01° 260.54° Asphalt 0 ft / 0 m 655 ft / 200 m

PKWA

Details ICAO PKWA (KWA)
Name BUCHOLZ AAF
Region Marshall Islands
Timezone Pacific/Kwajalein (UTC+12.0)
Stats Elevation 9 ft / 3 m (AMSL)
Location 8.720121° 167.731662°
Runways 1
Magnetic Variation 7.620° E

METAR

PKWA 211320Z AUTO 07015KT 7SM SCT018 BKN027 BKN039 28/25 A2986 RMK AO2 T02840250

Decode

TAF

TAF PKWA 211127Z 2112/2212 07018KT P6SM SCT020 SCT030 FM212200 07018KT P6SM VCSH SCT018 SCT030

Decode

Destination Runways

ID Width Length Bearing (true) Bearing (mag) Surface Threshold Offset Overrun Length
06 198 ft / 60 m 6,666 ft / 2,032 m 72.67° 65.05° Asphalt 0 ft / 0 m 0 ft / 0 m
24 198 ft / 60 m 6,666 ft / 2,032 m 252.67° 245.05° Asphalt 0 ft / 0 m 0 ft / 0 m

Popular Alternatives